Grand Etang, Nova Scotia

7:45 AM ADT on May 24, 2018 (GMT -0300)
Grand Etang

Weather History for CWZQ - December, 2012

Change the Weather History Date:

Monday, December 17, 2012

  Actual Average Record
Temperature  
Mean Temperature 36 °F -  
Max Temperature 41 °F - - ()
Min Temperature 30 °F - - ()
Degree Days  
Heating Degree Days 30    
Moisture  
Dew Point 32 °F    
Average Humidity 86    
Maximum Humidity 93    
Minimum Humidity 75    
Precipitation  
Precipitation 0.00 in - - ()
Sea Level Pressure  
Sea Level Pressure 30.20 in    
Wind  
Wind Speed 12 mph ()    
Max Wind Speed 23 mph    
Max Gust Speed 22 mph    
T = Trace of Precipitation, MM = Missing Value Source: Averaged Metar Reports

Daily Weather History Graph

Daily Weather History Graph

Search for Another Location

Airport or City:

Astronomy

Dec. 17, 2012 Rise Set
Actual Time 7:43 AM AST 4:17 PM AST
Civil Twilight 7:08 AM AST 4:53 PM AST
Nautical Twilight 6:29 AM AST 5:31 PM AST
Astronomical Twilight 5:52 AM AST 6:08 PM AST
Moon 10:34 AM AST (12/17) 9:50 PM AST (12/17)
Length of Visible Light 9h 44m
Length of Day
8h 34m
Waxing Crescent, 24% of the Moon is Illuminated
Dec 17
Waxing Crescent
Dec 20
First Quarter
Dec 28
Full
Jan 4
Last Quarter
Jan 11
New

Hourly Weather History & Observations

Time (AST) Temp. Windchill Dew Point Humidity Pressure Visibility Wind Dir Wind Speed Gust Speed Precip Events Conditions
12:00 AM 36.3 °F 24.9 °F 34.0 °F 91% 30.14 in - NNW 23.0 mph - N/A   Unknown
12:20 AM 36.7 °F 25.7 °F 34.0 °F 90% - - NNW 21.9 mph - N/A   Unknown
12:40 AM 36.9 °F 26.5 °F 34.2 °F 90% - - North 19.6 mph - N/A   Unknown
1:00 AM 36.5 °F 25.4 °F 34.0 °F 91% 30.15 in - North 21.9 mph - N/A   Unknown
1:20 AM 36.3 °F 25.8 °F 34.2 °F 92% - - North 19.6 mph - N/A   Unknown
1:40 AM 36.7 °F 26.3 °F 34.3 °F 91% - - North 19.6 mph - N/A   Unknown
2:00 AM 37.0 °F 26.4 °F 34.5 °F 91% 30.16 in - North 20.7 mph - N/A   Unknown
2:20 AM 37.0 °F 26.4 °F 34.2 °F 89% - - North 20.7 mph - N/A   Unknown
2:40 AM 37.2 °F 27.3 °F 34.3 °F 89% - - North 18.4 mph - N/A   Unknown
3:00 AM 36.7 °F 26.0 °F 34.0 °F 90% 30.17 in - NNE 20.7 mph - N/A   Unknown
3:20 AM 36.9 °F 27.1 °F 34.2 °F 90% - - NNE 17.3 mph - N/A   Unknown
3:40 AM 36.7 °F 28.9 °F 34.0 °F 90% - - North 11.5 mph 18.4 mph N/A   Unknown
4:00 AM 35.8 °F 25.7 °F 33.3 °F 91% 30.17 in - NNE 17.3 mph - N/A   Unknown
4:20 AM 36.3 °F 30.1 °F 34.0 °F 91% - - NNE 8.1 mph - N/A   Unknown
4:40 AM 36.7 °F 27.6 °F 34.5 °F 92% - - NNE 15.0 mph 21.9 mph N/A   Unknown
5:00 AM 36.9 °F 27.1 °F 34.9 °F 93% 30.19 in - North 17.3 mph - N/A   Unknown
5:20 AM 36.5 °F 27.8 °F 34.3 °F 92% - - NNE 13.8 mph - N/A   Unknown
5:40 AM 36.5 °F 28.2 °F 34.7 °F 93% - - North 12.7 mph - N/A   Unknown
6:00 AM 36.0 °F 26.0 °F 34.0 °F 93% 30.20 in - North 17.3 mph - N/A   Unknown
6:20 AM 34.7 °F 29.6 °F 31.3 °F 87% - - NE 5.8 mph - N/A   Unknown
6:40 AM 33.8 °F 27.7 °F 32.0 °F 93% - - NNE 6.9 mph - N/A   Unknown
7:00 AM 33.8 °F 24.3 °F 31.8 °F 92% 30.21 in - NE 13.8 mph - N/A   Unknown
7:20 AM 34.7 °F 28.8 °F 32.9 °F 93% - - NE 6.9 mph - N/A   Unknown
7:40 AM 34.3 °F 30.2 °F 31.8 °F 90% - - NE 4.6 mph - N/A   Unknown
8:00 AM 33.3 °F 27.1 °F 31.1 °F 92% 30.21 in - NE 6.9 mph - N/A   Unknown
8:20 AM 33.1 °F 30.0 °F 31.1 °F 92% - - East 3.5 mph - N/A   Unknown
8:40 AM 34.0 °F - 31.3 °F 90% - - East 2.3 mph - N/A   Unknown
9:00 AM 36.7 °F 32.9 °F 34.0 °F 90% 30.21 in - East 4.6 mph - N/A   Unknown
9:20 AM 37.6 °F - 34.3 °F 88% - - NNW 1.2 mph - N/A   Unknown
9:40 AM 37.0 °F 34.5 °F 33.1 °F 86% - - North 3.5 mph - N/A   Unknown
10:00 AM 38.1 °F 35.7 °F 34.0 °F 85% 30.23 in - North 3.5 mph - N/A   Unknown
10:20 AM 38.5 °F 36.1 °F 33.6 °F 83% - - NNW 3.5 mph - N/A   Unknown
10:40 AM 39.2 °F 35.9 °F 34.5 °F 83% - - North 4.6 mph - N/A   Unknown
11:00 AM 38.7 °F 34.3 °F 34.2 °F 84% 30.24 in - North 5.8 mph - N/A   Unknown
11:20 AM 40.5 °F - 34.3 °F 79% - - South 1.2 mph - N/A   Unknown
11:40 AM 40.8 °F - 33.8 °F 76% - - ENE 2.3 mph - N/A   Unknown
12:00 PM 40.6 °F 36.7 °F 34.3 °F 78% 30.23 in - North 5.8 mph - N/A   Unknown
12:20 PM 41.4 °F 36.8 °F 35.2 °F 79% - - North 6.9 mph - N/A   Unknown
12:40 PM 39.4 °F 32.7 °F 33.3 °F 79% - - NNE 10.4 mph - N/A   Unknown
1:00 PM 40.6 °F 34.3 °F 33.3 °F 75% 30.22 in - NE 10.4 mph - N/A   Unknown
1:20 PM 39.9 °F 37.8 °F 33.1 °F 77% - - ENE 3.5 mph - N/A   Unknown
1:40 PM 40.6 °F 34.8 °F 34.9 °F 80% - - North 9.2 mph - N/A   Unknown
2:00 PM 39.2 °F 32.0 °F 34.2 °F 82% 30.22 in - North 11.5 mph - N/A   Unknown
2:20 PM 39.0 °F 35.7 °F 33.6 °F 81% - - NNE 4.6 mph - N/A   Unknown
2:40 PM 38.7 °F 32.4 °F 33.6 °F 82% - - North 9.2 mph - N/A   Unknown
3:00 PM 38.7 °F 32.4 °F 33.6 °F 82% 30.23 in - North 9.2 mph - N/A   Unknown
3:20 PM 38.3 °F 32.5 °F 31.3 °F 76% - - NNE 8.1 mph - N/A   Unknown
3:40 PM 38.1 °F 34.6 °F 31.8 °F 78% - - NNE 4.6 mph - N/A   Unknown
4:00 PM 37.8 °F 31.3 °F 31.5 °F 78% 30.23 in - NE 9.2 mph - N/A   Unknown
4:20 PM 37.0 °F 31.6 °F 31.1 °F 79% - - NE 6.9 mph - N/A   Unknown
4:40 PM 36.9 °F 32.2 °F 31.3 °F 80% - - ENE 5.8 mph - N/A   Unknown
5:00 PM 36.0 °F 29.6 °F 30.6 °F 81% 30.23 in - East 8.1 mph - N/A   Unknown
5:20 PM 36.1 °F 31.4 °F 30.9 °F 81% - - East 5.8 mph - N/A   Unknown
5:40 PM 35.6 °F 31.7 °F 30.4 °F 81% - - East 4.6 mph - N/A   Unknown
8:20 PM 31.3 °F 26.6 °F 28.4 °F 89% - - NE 4.6 mph - N/A   Unknown
8:40 PM 33.4 °F - 28.2 °F 81% - - Calm Calm - N/A   Unknown
9:00 PM 34.0 °F 28.8 °F 28.6 °F 81% 30.22 in - East 5.8 mph - N/A   Unknown
9:20 PM 34.2 °F - 28.9 °F 81% - - WNW 1.2 mph - N/A   Unknown
9:40 PM 34.5 °F 31.6 °F 29.5 °F 82% - - NW 3.5 mph - N/A   Unknown
10:00 PM 34.5 °F 30.4 °F 29.7 °F 82% 30.22 in - WSW 4.6 mph - N/A   Unknown
10:20 PM 31.5 °F 26.8 °F 27.9 °F 87% - - ESE 4.6 mph - N/A   Unknown
10:40 PM 31.5 °F 28.1 °F 28.4 °F 88% - - East 3.5 mph - N/A   Unknown
11:00 PM 30.4 °F 25.6 °F 27.3 °F 88% 30.22 in - SE 4.6 mph - N/A   Unknown
11:20 PM 30.2 °F 26.7 °F 27.5 °F 90% - - SE 3.5 mph - N/A   Unknown
11:40 PM 30.9 °F - 28.4 °F 90% - - West 2.3 mph - N/A   Unknown